Waarnemingen

Advertentie
Mijn weer
Lugo/Rozas, Spanje (8008): temperatuur & dauwpunt: 22.05.2018 07:00:00 - 28.05.2018 07:00:00 (CEST)Lugo/Rozas, Spanje (8008): windsnelheid: 22.05.2018 07:00:00 - 28.05.2018 07:00:00 (CEST)Lugo/Rozas, Spanje (8008): windrichting: 22.05.2018 07:00:00 - 28.05.2018 07:00:00 (CEST)Lugo/Rozas, Spanje (8008): luchtdruk: 22.05.2018 07:00:00 - 28.05.2018 07:00:00 (CEST)Lugo/Rozas, Spanje (8008): zicht: 22.05.2018 07:00:00 - 28.05.2018 07:00:00 (CEST)Lugo/Rozas, Spanje (8008): neerslag: 22.05.2018 07:00:00 - 28.05.2018 07:00:00 (CEST)
Datum & Tijd tt [°C] td [°C] ff [km/u] ff [kn] dd ppp [hPa] vv [km] rr [mm]
28.05.2018 07:00:00 10,0 9,2 2 1 NNW 1018,1 - 0,0
28.05.2018 06:00:00 10,5 9,3 2 1 W 1017,4 - 0,0
28.05.2018 05:00:00 10,9 9,7 2 1 W 1017,3 6 -
28.05.2018 04:00:00 10,7 9,9 0 0 N 1017,8 - 0,0
28.05.2018 03:00:00 10,7 9,5 0 0 N 1018,2 6 0,0
28.05.2018 02:00:00 10,8 9,4 2 1 NNW 1018,6 8 -
28.05.2018 01:00:00 11,4 9,5 2 1 NW 1018,1 8 0,0
28.05.2018 00:00:00 12,3 10,0 2 1 WNW 1018,3 16 0,0
27.05.2018 23:00:00 12,8 9,8 2 1 W 1017,9 14 -
27.05.2018 22:00:00 13,6 10,2 2 1 NW 1017,1 19 0,0
27.05.2018 21:00:00 15,3 10,1 5 3 N 1016,6 20 0,0
27.05.2018 20:00:00 16,5 10,3 5 3 N 1015,8 20 -
27.05.2018 19:00:00 17,6 10,9 4 2 N 1015,6 20 0,0
27.05.2018 18:00:00 18,4 11,7 5 3 N 1015,3 20 0,0
27.05.2018 17:00:00 18,5 11,6 5 3 NNW 1015,1 20 -
27.05.2018 16:00:00 18,3 11,8 5 3 NNW 1015,2 20 0,0
27.05.2018 15:00:00 17,4 11,4 4 2 NW 1015,6 20 0,0
27.05.2018 14:00:00 16,2 11,1 5 3 W 1016,2 20 -
27.05.2018 13:00:00 14,6 10,8 2 1 NW 1016,9 20 0,0
27.05.2018 12:00:00 13,7 10,7 4 2 WNW 1017,1 20 0,0
27.05.2018 11:00:00 12,9 10,4 4 2 W 1017,0 14 -
27.05.2018 10:00:00 12,5 10,7 4 2 N 1016,7 11 0,0
27.05.2018 09:00:00 12,8 11,5 2 1 NW 1016,0 6 0,0
27.05.2018 08:00:00 12,5 11,2 4 2 WZW 1015,7 6 -
27.05.2018 07:00:00 12,7 11,4 2 1 ZZW 1015,3 4,3 0,0
27.05.2018 06:00:00 12,7 11,4 0 0 N 1014,9 3,9 0,0
27.05.2018 05:00:00 12,7 11,4 0 0 N 1015,0 3,5 -
27.05.2018 04:00:00 12,8 11,4 0 0 N 1015,3 4,0 0,0
27.05.2018 03:00:00 12,9 11,5 0 0 N 1015,6 - 0,0
27.05.2018 02:00:00 12,8 11,4 4 2 W 1015,8 9 -
27.05.2018 01:00:00 13,2 11,6 2 1 W 1015,7 11 0,0
27.05.2018 00:00:00 13,5 11,5 4 2 NW 1015,8 15 0,0
26.05.2018 23:00:00 14,0 12,7 2 1 NNW 1015,3 20 -
26.05.2018 22:00:00 14,3 12,8 2 1 NO 1014,6 20 0,0
26.05.2018 21:00:00 15,4 13,1 5 3 ONO 1014,0 20 0,0
26.05.2018 20:00:00 16,4 13,5 2 1 NNW 1013,2 20 -
26.05.2018 19:00:00 16,5 13,4 4 2 N 1013,3 20 0,0
26.05.2018 18:00:00 16,2 14,4 4 2 NO 1013,3 20 0,0
26.05.2018 17:00:00 15,1 13,6 4 2 NNO 1013,8 20 -
26.05.2018 16:00:00 14,7 13,4 2 1 NO 1014,1 6 1,0
26.05.2018 15:00:00 14,7 13,4 2 1 N 1014,2 4,1 0,6
26.05.2018 14:00:00 14,8 13,0 5 3 O 1014,0 20 -
26.05.2018 13:00:00 14,7 12,9 4 2 O 1014,0 20 0,0
26.05.2018 12:00:00 13,9 12,5 4 2 ONO 1014,2 14 0,0
26.05.2018 11:00:00 13,6 12,8 2 1 NO 1014,1 17 -
26.05.2018 10:00:00 12,7 12,1 2 1 NO 1014,3 4,7 0,2
26.05.2018 09:00:00 12,7 11,9 2 1 NNW 1014,2 2,1 0,0
26.05.2018 08:00:00 12,4 11,8 2 1 NNW 1014,2 2,4 -
26.05.2018 07:00:00 12,0 11,4 2 1 NO 1014,0 7 0,0
26.05.2018 06:00:00 11,9 11,3 2 1 NNO 1013,7 8 0,8
26.05.2018 05:00:00 11,8 11,2 2 1 NNO 1014,1 - -
26.05.2018 04:00:00 11,9 11,3 2 1 N 1014,4 6 0,2
26.05.2018 03:00:00 11,7 11,2 4 2 NNO 1014,7 4,7 0,2
26.05.2018 02:00:00 11,9 11,4 4 2 NO 1015,0 8 -
26.05.2018 01:00:00 12,0 11,5 2 1 NO 1015,4 3,5 0,6
26.05.2018 00:00:00 12,1 11,5 4 2 NO 1015,6 3,3 0,8
25.05.2018 23:00:00 12,5 11,9 4 2 NO 1015,5 4,3 -
25.05.2018 22:00:00 12,4 11,9 4 2 NO 1015,0 3,2 2,0
25.05.2018 21:00:00 12,8 12,2 2 1 NNO 1014,6 2,3 2,0
25.05.2018 20:00:00 12,6 11,8 5 3 NO 1014,4 2,8 -
25.05.2018 19:00:00 13,0 11,4 8 4 ONO 1014,3 15 0,0
25.05.2018 18:00:00 13,3 12,0 9 5 NO 1014,4 18 0,0
25.05.2018 17:00:00 13,6 12,2 8 4 NO 1014,6 20 -
25.05.2018 16:00:00 13,4 12,0 11 6 NO 1014,5 19 0,0
25.05.2018 15:00:00 14,0 12,4 8 4 NO 1014,5 20 0,0
25.05.2018 14:00:00 14,0 12,2 8 4 NO 1014,8 20 -
25.05.2018 13:00:00 14,0 12,4 13 7 ONO 1014,9 20 0,0
25.05.2018 12:00:00 13,2 12,1 15 8 NO 1015,1 13 0,0
25.05.2018 11:00:00 13,7 12,3 15 8 NO 1014,8 15 -
25.05.2018 10:00:00 13,5 12,6 5 3 NO 1014,6 11 0,0
25.05.2018 09:00:00 13,0 11,9 13 7 NO 1014,6 9 0,0
25.05.2018 08:00:00 12,8 12,0 9 5 NO 1013,8 8 -
25.05.2018 07:00:00 12,6 12,0 5 3 NO 1014,1 4,6 0,0
25.05.2018 06:00:00 12,7 12,4 15 8 NO 1013,9 2,5 0,0
25.05.2018 05:00:00 12,7 12,5 9 5 NO 1013,6 0,9 -
25.05.2018 04:00:00 12,7 12,4 11 6 NO 1014,6 1,2 0,0
25.05.2018 03:00:00 12,7 12,1 5 3 NO 1015,3 2,2 0,2
25.05.2018 02:00:00 12,7 11,9 8 4 ONO 1016,1 4,8 -
25.05.2018 01:00:00 12,9 12,0 5 3 NO 1015,4 4,2 0,0
25.05.2018 00:00:00 13,4 12,8 9 5 NO 1015,4 3,3 0,0
24.05.2018 23:00:00 13,6 13,1 8 4 NO 1015,5 1,7 -
24.05.2018 22:00:00 13,9 13,4 9 5 NO 1015,0 1,0 0,0
24.05.2018 21:00:00 14,7 13,9 9 5 NO 1015,2 1,8 0,4
24.05.2018 20:00:00 15,4 14,1 4 2 NNO 1015,4 1,1 -
24.05.2018 19:00:00 16,1 13,9 4 2 NO 1014,9 11 0,0
24.05.2018 18:00:00 16,6 13,7 11 6 ONO 1014,8 15 0,0
24.05.2018 17:00:00 18,2 14,5 13 7 NO 1013,8 16 -
24.05.2018 16:00:00 20,1 15,1 8 4 NNO 1013,5 20 0,0
24.05.2018 15:00:00 21,8 16,1 5 3 NNO 1013,6 20 0,0
24.05.2018 14:00:00 21,3 15,6 8 4 NO 1014,0 20 -
24.05.2018 13:00:00 21,2 15,5 5 3 N 1014,5 20 0,0
24.05.2018 12:00:00 20,6 14,9 4 2 NW 1014,7 20 0,0
24.05.2018 11:00:00 17,7 14,2 8 4 ONO 1014,9 20 -
24.05.2018 10:00:00 14,1 13,3 5 3 NO 1016,3 20 0,0
24.05.2018 09:00:00 12,8 12,3 2 1 OZO 1016,6 0,4 0,0
24.05.2018 08:00:00 12,0 11,4 4 2 ZO 1016,8 0,2 -
24.05.2018 07:00:00 11,9 11,1 4 2 ZZO 1016,5 0,9 0,0
24.05.2018 06:00:00 12,6 11,5 2 1 Z 1016,2 4,7 0,0
24.05.2018 05:00:00 12,5 11,9 4 2 WZW 1016,7 0,8 -
24.05.2018 04:00:00 12,4 11,8 2 1 Z 1016,9 0,2 0,0
24.05.2018 03:00:00 12,1 11,3 2 1 Z 1017,0 2,4 0,0
24.05.2018 02:00:00 12,5 10,6 2 1 ZO 1017,2 4,9 -
24.05.2018 01:00:00 13,3 11,9 2 1 ONO 1017,4 1,7 0,0
24.05.2018 00:00:00 14,5 12,9 2 1 OZO 1017,3 2,9 0,0
23.05.2018 23:00:00 15,0 13,2 4 2 WZW 1016,9 - -
23.05.2018 22:00:00 15,8 13,5 2 1 NNW 1015,9 14 0,0
23.05.2018 21:00:00 16,7 14,0 2 1 NW 1016,1 19 0,0
23.05.2018 20:00:00 17,0 13,7 4 2 NO 1016,1 20 -
23.05.2018 19:00:00 18,9 14,2 9 5 NO 1015,0 20 0,0
23.05.2018 18:00:00 22,3 15,2 5 3 NNO 1013,7 20 0,0
23.05.2018 17:00:00 22,9 14,5 11 6 NO 1013,6 20 -
23.05.2018 16:00:00 23,5 14,2 13 7 ONO 1013,7 20 0,0
23.05.2018 15:00:00 24,2 13,1 5 3 W 1014,1 20 0,0
23.05.2018 14:00:00 23,2 13,9 5 3 ONO 1014,5 20 -
23.05.2018 13:00:00 21,9 13,3 4 2 NNO 1015,3 20 0,0
23.05.2018 12:00:00 20,2 12,9 4 2 NNW 1015,9 20 0,0
23.05.2018 11:00:00 17,6 12,3 5 3 NO 1016,4 20 -
23.05.2018 10:00:00 15,6 11,8 4 2 N 1016,7 20 0,0
23.05.2018 09:00:00 14,4 11,0 2 1 OZO 1016,9 7 0,0
23.05.2018 08:00:00 10,4 9,9 2 1 ZZW 1017,1 2,0 -
23.05.2018 07:00:00 9,3 8,7 4 2 ONO 1016,9 2,5 0,0
23.05.2018 06:00:00 8,3 7,1 2 1 ZO 1017,3 4,9 0,0
23.05.2018 05:00:00 8,8 7,6 0 0 N 1017,2 3,8 -
23.05.2018 04:00:00 9,0 7,6 2 1 N 1017,4 3,6 0,0
23.05.2018 03:00:00 9,3 7,7 0 0 N 1017,9 4,2 0,0
23.05.2018 02:00:00 10,4 8,7 2 1 NW 1018,0 - -
23.05.2018 01:00:00 11,1 8,5 2 1 O 1017,8 7 0,0
23.05.2018 00:00:00 12,2 9,4 2 1 N 1017,5 13 0,0
22.05.2018 23:00:00 13,4 9,4 4 2 NNO 1017,0 19 -
22.05.2018 22:00:00 14,8 9,6 5 3 NNO 1016,0 20 0,0
22.05.2018 21:00:00 16,7 10,5 8 4 NO 1015,2 20 0,0
22.05.2018 20:00:00 18,7 10,8 8 4 NNO 1014,5 20 -
22.05.2018 19:00:00 20,5 10,0 15 8 NO 1014,0 20 0,0
22.05.2018 18:00:00 21,8 10,6 13 7 NO 1013,4 20 0,0
22.05.2018 17:00:00 23,4 12,4 11 6 NO 1012,8 20 -
22.05.2018 16:00:00 24,6 13,2 9 5 NO 1012,6 20 0,0
22.05.2018 15:00:00 23,7 10,4 8 4 NO 1012,9 20 0,0
22.05.2018 14:00:00 22,5 12,4 8 4 NNO 1013,5 25 -
22.05.2018 13:00:00 20,3 12,8 5 3 NNO 1014,2 20 0,0
22.05.2018 12:00:00 17,1 13,6 5 3 W 1015,0 20 0,0
22.05.2018 11:00:00 12,8 11,2 4 2 NO 1015,8 12 -
22.05.2018 10:00:00 11,1 10,3 4 2 ZW 1015,8 2,5 0,0
22.05.2018 09:00:00 10,3 9,5 2 1 Z 1015,4 1,0 0,0
22.05.2018 08:00:00 10,1 9,2 2 1 ZZO 1015,3 0,4 -
22.05.2018 07:00:00 10,6 10,1 2 1 ZZW 1014,6 0,2 0,0

tt = temperatuur
td = dauwpunt
ff = windsnelheid
dd = windrichting
ppp = luchtdruk
vv = zicht
rr = neerslag

Weerstations in de omgeving